owner,sensor,date,latitude,longitude,air_temperature,qcFlag 
TABS,ioos:station:wmo:42047:1,2019-03-01T05:00:00Z,27.8966,-93.5973,11.2,1111122 
TABS,ioos:station:wmo:42047:1,2019-03-01T06:30:00Z,27.8966,-93.5973,11.5,1111122 
TABS,ioos:station:wmo:42047:1,2019-03-01T08:00:00Z,27.8966,-93.5973,11.5,1111122 
TABS,ioos:station:wmo:42047:1,2019-03-01T09:00:00Z,27.8966,-93.5973,9.1,1111122 
TABS,ioos:station:wmo:42047:1,2019-03-01T10:00:00Z,27.8966,-93.5973,9.8,1111122 
TABS,ioos:station:wmo:42047:1,2019-03-01T11:00:00Z,27.8966,-93.5973,9.0,1111122 
TABS,ioos:station:wmo:42047:1,2019-03-01T12:00:00Z,27.8966,-93.5973,9.7,1111122 
TABS,ioos:station:wmo:42047:1,2019-03-01T13:00:00Z,27.8966,-93.5973,10.0,1111122 
TABS,ioos:station:wmo:42047:1,2019-03-01T14:00:00Z,27.8966,-93.5973,10.7,1111122 
TABS,ioos:station:wmo:42047:1,2019-03-01T15:00:00Z,27.8966,-93.5973,12.1,1111122 
TABS,ioos:station:wmo:42047:1,2019-03-01T16:00:00Z,27.8966,-93.5973,11.7,1111122 
TABS,ioos:station:wmo:42047:1,2019-03-01T17:00:00Z,27.8966,-93.5973,13.1,1111122 
TABS,ioos:station:wmo:42047:1,2019-03-01T18:00:00Z,27.8966,-93.5973,13.0,1111122 
TABS,ioos:station:wmo:42047:1,2019-03-01T19:00:00Z,27.8966,-93.5973,13.3,1111122 
TABS,ioos:station:wmo:42047:1,2019-03-01T20:00:00Z,27.8966,-93.5973,13.1,1111122 
TABS,ioos:station:wmo:42047:1,2019-03-01T20:30:00Z,27.8966,-93.5973,13.5,1111122 
TABS,ioos:station:wmo:42047:1,2019-03-01T22:00:00Z,27.8966,-93.5973,11.8,1111122 
TABS,ioos:station:wmo:42047:1,2019-03-01T23:00:00Z,27.8966,-93.5973,12.9,1111122 
TABS,ioos:station:wmo:42047:1,2019-03-01T23:30:00Z,27.8966,-93.5973,13.0,1111122 
TABS,ioos:station:wmo:42047:1,2019-03-02T06:00:00Z,27.8966,-93.5973,11.6,1111122 
TABS,ioos:station:wmo:42047:1,2019-03-02T07:00:00Z,27.8966,-93.5973,11.6,1111122 
TABS,ioos:station:wmo:42047:1,2019-03-02T08:00:00Z,27.8966,-93.5973,11.6,1111122 
TABS,ioos:station:wmo:42047:1,2019-03-02T09:00:00Z,27.8966,-93.5973,11.5,1111122 
TABS,ioos:station:wmo:42047:1,2019-03-02T10:00:00Z,27.8966,-93.5973,11.5,1111122 
TABS,ioos:station:wmo:42047:1,2019-03-02T11:00:00Z,27.8966,-93.5973,11.7,1111122 
TABS,ioos:station:wmo:42047:1,2019-03-02T12:00:00Z,27.8966,-93.5973,11.6,1111122 
TABS,ioos:station:wmo:42047:1,2019-03-02T13:00:00Z,27.8966,-93.5973,11.5,1111122 
TABS,ioos:station:wmo:42047:1,2019-03-02T14:00:00Z,27.8966,-93.5973,11.8,1111122 
TABS,ioos:station:wmo:42047:1,2019-03-02T15:00:00Z,27.8966,-93.5973,12.9,1111122 
TABS,ioos:station:wmo:42047:1,2019-03-02T16:00:00Z,27.8966,-93.5973,12.2,1111122 
TABS,ioos:station:wmo:42047:1,2019-03-02T17:00:00Z,27.8966,-93.5973,12.3,1111122 
TABS,ioos:station:wmo:42047:1,2019-03-02T18:00:00Z,27.8966,-93.5973,12.0,1111122 
TABS,ioos:station:wmo:42047:1,2019-03-02T19:00:00Z,27.8966,-93.5973,12.8,1111122 
TABS,ioos:station:wmo:42047:1,2019-03-02T20:00:00Z,27.8966,-93.5973,12.9,1111122 
TABS,ioos:station:wmo:42047:1,2019-03-02T21:00:00Z,27.8966,-93.5973,13.0,1111122 
TABS,ioos:station:wmo:42047:1,2019-03-02T22:00:00Z,27.8966,-93.5973,13.6,1111122 
TABS,ioos:station:wmo:42047:1,2019-03-02T23:00:00Z,27.8966,-93.5973,12.9,1111122 
TABS,ioos:station:wmo:42047:1,2019-03-02T23:30:00Z,27.8966,-93.5973,13.0,1111122 
TABS,ioos:station:wmo:42047:1,2019-03-03T06:00:00Z,27.8966,-93.5973,12.2,1111122 
TABS,ioos:station:wmo:42047:1,2019-03-03T07:00:00Z,27.8966,-93.5973,12.1,1111122 
TABS,ioos:station:wmo:42047:1,2019-03-03T08:00:00Z,27.8966,-93.5973,12.1,1111122 
TABS,ioos:station:wmo:42047:1,2019-03-03T09:00:00Z,27.8966,-93.5973,12.0,1111122 
TABS,ioos:station:wmo:42047:1,2019-03-03T09:30:00Z,27.8966,-93.5973,12.2,1111122 
TABS,ioos:station:wmo:42047:1,2019-03-03T11:00:00Z,27.8966,-93.5973,12.1,1111122 
TABS,ioos:station:wmo:42047:1,2019-03-03T12:00:00Z,27.8966,-93.5973,12.1,1111122 
TABS,ioos:station:wmo:42047:1,2019-03-03T13:00:00Z,27.8966,-93.5973,12.3,1111122 
TABS,ioos:station:wmo:42047:1,2019-03-03T14:00:00Z,27.8966,-93.5973,12.7,1111122 
TABS,ioos:station:wmo:42047:1,2019-03-03T15:00:00Z,27.8966,-93.5973,13.2,1111122 
TABS,ioos:station:wmo:42047:1,2019-03-03T16:00:00Z,27.8966,-93.5973,13.2,1111122 
TABS,ioos:station:wmo:42047:1,2019-03-03T17:00:00Z,27.8966,-93.5973,13.1,1111122 
TABS,ioos:station:wmo:42047:1,2019-03-03T18:00:00Z,27.8966,-93.5973,13.3,1111122 
TABS,ioos:station:wmo:42047:1,2019-03-03T19:00:00Z,27.8966,-93.5973,13.5,1111122 
TABS,ioos:station:wmo:42047:1,2019-03-03T20:00:00Z,27.8966,-93.5973,13.3,1111122 
TABS,ioos:station:wmo:42047:1,2019-03-03T21:00:00Z,27.8966,-93.5973,13.6,1111122 
TABS,ioos:station:wmo:42047:1,2019-03-03T22:00:00Z,27.8966,-93.5973,9.8,1111122 
TABS,ioos:station:wmo:42047:1,2019-03-03T23:00:00Z,27.8966,-93.5973,8.0,1111122 
TABS,ioos:station:wmo:42047:1,2019-03-03T23:30:00Z,27.8966,-93.5973,7.3,1111122 
TABS,ioos:station:wmo:42047:1,2019-03-04T05:00:00Z,27.8966,-93.5973,4.8,1111122 
TABS,ioos:station:wmo:42047:1,2019-03-04T06:00:00Z,27.8966,-93.5973,4.3,1111122 
TABS,ioos:station:wmo:42047:1,2019-03-04T07:00:00Z,27.8966,-93.5973,3.9,1111122 
TABS,ioos:station:wmo:42047:1,2019-03-04T08:00:00Z,27.8966,-93.5973,3.6,1111122 
TABS,ioos:station:wmo:42047:1,2019-03-04T09:00:00Z,27.8966,-93.5973,3.3,1111122 
TABS,ioos:station:wmo:42047:1,2019-03-04T10:00:00Z,27.8966,-93.5973,3.0,1111122 
TABS,ioos:station:wmo:42047:1,2019-03-04T11:00:00Z,27.8966,-93.5973,3.2,1111122 
TABS,ioos:station:wmo:42047:1,2019-03-04T12:00:00Z,27.8966,-93.5973,2.7,1111122 
TABS,ioos:station:wmo:42047:1,2019-03-04T13:00:00Z,27.8966,-93.5973,2.9,1111122 
TABS,ioos:station:wmo:42047:1,2019-03-04T13:30:00Z,27.8966,-93.5973,2.8,1111122 
TABS,ioos:station:wmo:42047:1,2019-03-04T15:00:00Z,27.8966,-93.5973,1.8,1111122 
TABS,ioos:station:wmo:42047:1,2019-03-04T16:00:00Z,27.8966,-93.5973,1.6,1111122 
TABS,ioos:station:wmo:42047:1,2019-03-04T17:00:00Z,27.8966,-93.5973,1.3,1111122 
TABS,ioos:station:wmo:42047:1,2019-03-04T18:00:00Z,27.8966,-93.5973,1.3,1111122 
TABS,ioos:station:wmo:42047:1,2019-03-04T18:30:00Z,27.8966,-93.5973,1.1,1111122 
TABS,ioos:station:wmo:42047:1,2019-03-04T19:30:00Z,27.8966,-93.5973,0.8,1111122 
TABS,ioos:station:wmo:42047:1,2019-03-04T21:00:00Z,27.8966,-93.5973,0.4,1111122 
TABS,ioos:station:wmo:42047:1,2019-03-04T22:00:00Z,27.8966,-93.5973,0.6,1111122 
TABS,ioos:station:wmo:42047:1,2019-03-04T23:00:00Z,27.8966,-93.5973,0.5,1111122 
TABS,ioos:station:wmo:42047:1,2019-03-04T23:30:00Z,27.8966,-93.5973,0.4,1111122 
TABS,ioos:station:wmo:42047:1,2019-03-05T04:30:00Z,27.8966,-93.5973,0.4,1111122 
TABS,ioos:station:wmo:42047:1,2019-03-05T05:30:00Z,27.8966,-93.5973,0.1,1111122 
TABS,ioos:station:wmo:42047:1,2019-03-05T07:00:00Z,27.8966,-93.5973,0.4,1111122 
TABS,ioos:station:wmo:42047:1,2019-03-05T08:00:00Z,27.8966,-93.5973,0.3,1111122 
TABS,ioos:station:wmo:42047:1,2019-03-05T09:00:00Z,27.8966,-93.5973,0.2,1111122 
TABS,ioos:station:wmo:42047:1,2019-03-05T11:00:00Z,27.8966,-93.5973,-0.2,1111122 
TABS,ioos:station:wmo:42047:1,2019-03-05T12:00:00Z,27.8966,-93.5973,-0.1,1111122 
TABS,ioos:station:wmo:42047:1,2019-03-05T14:00:00Z,27.8966,-93.5973,-0.6,1111122 
TABS,ioos:station:wmo:42047:1,2019-03-05T15:00:00Z,27.8966,-93.5973,-0.7,1111122 
TABS,ioos:station:wmo:42047:1,2019-03-05T16:00:00Z,27.8966,-93.5973,-2.8,1111122 
TABS,ioos:station:wmo:42047:1,2019-03-05T17:00:00Z,27.8966,-93.5973,-1.0,1111122 
TABS,ioos:station:wmo:42047:1,2019-03-05T18:00:00Z,27.8966,-93.5973,-1.0,1111122 
TABS,ioos:station:wmo:42047:1,2019-03-05T18:30:00Z,27.8966,-93.5973,-1.0,1111122 
TABS,ioos:station:wmo:42047:1,2019-03-05T20:00:00Z,27.8966,-93.5973,-0.8,1111122 
TABS,ioos:station:wmo:42047:1,2019-03-05T22:00:00Z,27.8966,-93.5973,-0.5,1111122 
TABS,ioos:station:wmo:42047:1,2019-03-05T23:00:00Z,27.8966,-93.5973,-0.2,1111122 
TABS,ioos:station:wmo:42047:1,2019-03-05T23:30:00Z,27.8966,-93.5973,-0.1,1111122 
TABS,ioos:station:wmo:42047:1,2019-03-06T04:30:00Z,27.8966,-93.5973,1.5,1111122 
TABS,ioos:station:wmo:42047:1,2019-03-06T06:00:00Z,27.8966,-93.5973,1.9,1111122 
TABS,ioos:station:wmo:42047:1,2019-03-06T07:00:00Z,27.8966,-93.5973,2.1,1111122 
TABS,ioos:station:wmo:42047:1,2019-03-06T08:00:00Z,27.8966,-93.5973,1.7,1111122 
TABS,ioos:station:wmo:42047:1,2019-03-06T09:00:00Z,27.8966,-93.5973,1.7,1111122 
TABS,ioos:station:wmo:42047:1,2019-03-06T10:00:00Z,27.8966,-93.5973,1.8,1111122 
TABS,ioos:station:wmo:42047:1,2019-03-06T11:00:00Z,27.8966,-93.5973,1.9,1111122 
TABS,ioos:station:wmo:42047:1,2019-03-06T12:00:00Z,27.8966,-93.5973,2.2,1111122 
TABS,ioos:station:wmo:42047:1,2019-03-06T13:00:00Z,27.8966,-93.5973,2.6,1111122 
TABS,ioos:station:wmo:42047:1,2019-03-06T14:00:00Z,27.8966,-93.5973,3.6,1111122 
TABS,ioos:station:wmo:42047:1,2019-03-06T15:00:00Z,27.8966,-93.5973,3.7,1111122 
TABS,ioos:station:wmo:42047:1,2019-03-06T16:00:00Z,27.8966,-93.5973,3.2,1111122 
TABS,ioos:station:wmo:42047:1,2019-03-06T17:00:00Z,27.8966,-93.5973,4.5,1111122 
TABS,ioos:station:wmo:42047:1,2019-03-06T18:00:00Z,27.8966,-93.5973,4.8,1111122 
TABS,ioos:station:wmo:42047:1,2019-03-06T19:00:00Z,27.8966,-93.5973,3.8,1111122 
TABS,ioos:station:wmo:42047:1,2019-03-06T20:00:00Z,27.8966,-93.5973,4.4,1111122 
TABS,ioos:station:wmo:42047:1,2019-03-06T21:00:00Z,27.8966,-93.5973,5.3,1111122 
TABS,ioos:station:wmo:42047:1,2019-03-06T22:00:00Z,27.8966,-93.5973,4.9,1111122 
TABS,ioos:station:wmo:42047:1,2019-03-06T23:00:00Z,27.8966,-93.5973,5.2,1111122 
TABS,ioos:station:wmo:42047:1,2019-03-06T23:30:00Z,27.8966,-93.5973,5.3,1111122 
TABS,ioos:station:wmo:42047:1,2019-03-07T05:00:00Z,27.8966,-93.5973,7.4,1111122 
TABS,ioos:station:wmo:42047:1,2019-03-07T06:00:00Z,27.8966,-93.5973,7.8,1111122 
TABS,ioos:station:wmo:42047:1,2019-03-07T07:00:00Z,27.8966,-93.5973,8.5,1111122 
TABS,ioos:station:wmo:42047:1,2019-03-07T08:00:00Z,27.8966,-93.5973,8.8,1111122 
TABS,ioos:station:wmo:42047:1,2019-03-07T09:00:00Z,27.8966,-93.5973,9.3,1111122 
TABS,ioos:station:wmo:42047:1,2019-03-07T10:00:00Z,27.8966,-93.5973,9.5,1111122 
TABS,ioos:station:wmo:42047:1,2019-03-07T11:00:00Z,27.8966,-93.5973,9.8,1111122 
TABS,ioos:station:wmo:42047:1,2019-03-07T12:00:00Z,27.8966,-93.5973,9.9,1111122 
TABS,ioos:station:wmo:42047:1,2019-03-07T13:00:00Z,27.8966,-93.5973,9.9,1111122 
TABS,ioos:station:wmo:42047:1,2019-03-07T14:00:00Z,27.8966,-93.5973,10.1,1111122 
TABS,ioos:station:wmo:42047:1,2019-03-07T15:00:00Z,27.8966,-93.5973,10.3,1111122 
TABS,ioos:station:wmo:42047:1,2019-03-07T16:00:00Z,27.8966,-93.5973,10.6,1111122 
TABS,ioos:station:wmo:42047:1,2019-03-07T17:00:00Z,27.8966,-93.5973,11.1,1111122 
TABS,ioos:station:wmo:42047:1,2019-03-07T18:00:00Z,27.8966,-93.5973,11.0,1111122 
TABS,ioos:station:wmo:42047:1,2019-03-07T19:00:00Z,27.8966,-93.5973,11.2,1111122 
TABS,ioos:station:wmo:42047:1,2019-03-07T20:00:00Z,27.8966,-93.5973,11.4,1111122 
TABS,ioos:station:wmo:42047:1,2019-03-07T21:00:00Z,27.8966,-93.5973,11.7,1111122 
TABS,ioos:station:wmo:42047:1,2019-03-07T22:00:00Z,27.8966,-93.5973,11.2,1111122 
TABS,ioos:station:wmo:42047:1,2019-03-07T23:00:00Z,27.8966,-93.5973,11.0,1111122 
TABS,ioos:station:wmo:42047:1,2019-03-07T23:30:00Z,27.8966,-93.5973,11.0,1111122 
TABS,ioos:station:wmo:42047:1,2019-03-08T05:00:00Z,27.8966,-93.5973,10.9,1111122 
TABS,ioos:station:wmo:42047:1,2019-03-08T06:00:00Z,27.8966,-93.5973,11.0,1111122 
TABS,ioos:station:wmo:42047:1,2019-03-08T07:00:00Z,27.8966,-93.5973,10.7,1111122 
TABS,ioos:station:wmo:42047:1,2019-03-08T08:00:00Z,27.8966,-93.5973,10.7,1111122 
TABS,ioos:station:wmo:42047:1,2019-03-08T09:00:00Z,27.8966,-93.5973,10.5,1111122 
TABS,ioos:station:wmo:42047:1,2019-03-08T10:00:00Z,27.8966,-93.5973,10.6,1111122 
TABS,ioos:station:wmo:42047:1,2019-03-08T12:00:00Z,27.8966,-93.5973,10.5,1111122 
TABS,ioos:station:wmo:42047:1,2019-03-08T13:00:00Z,27.8966,-93.5973,10.5,1111122 
TABS,ioos:station:wmo:42047:1,2019-03-08T15:30:00Z,27.8966,-93.5973,11.8,1111122 
TABS,ioos:station:wmo:42047:1,2019-03-08T17:00:00Z,27.8966,-93.5973,12.3,1111122 
TABS,ioos:station:wmo:42047:1,2019-03-08T17:30:00Z,27.8966,-93.5973,12.4,1111122 
TABS,ioos:station:wmo:42047:1,2019-03-08T18:30:00Z,27.8966,-93.5973,12.3,1111122 
TABS,ioos:station:wmo:42047:1,2019-03-08T20:00:00Z,27.8966,-93.5973,12.4,1111122 
TABS,ioos:station:wmo:42047:1,2019-03-08T21:00:00Z,27.8966,-93.5973,12.5,1111122 
TABS,ioos:station:wmo:42047:1,2019-03-08T22:00:00Z,27.8966,-93.5973,12.4,1111122 
TABS,ioos:station:wmo:42047:1,2019-03-08T23:00:00Z,27.8966,-93.5973,12.1,1111122 
TABS,ioos:station:wmo:42047:1,2019-03-08T23:30:00Z,27.8966,-93.5973,11.5,1111122 
TABS,ioos:station:wmo:42047:1,2019-03-09T05:00:00Z,27.8966,-93.5973,11.4,1111122 
TABS,ioos:station:wmo:42047:1,2019-03-09T06:00:00Z,27.8966,-93.5973,11.5,1111122 
TABS,ioos:station:wmo:42047:1,2019-03-09T07:00:00Z,27.8966,-93.5973,11.3,1111122 
TABS,ioos:station:wmo:42047:1,2019-03-09T08:00:00Z,27.8966,-93.5973,11.4,1111122 
TABS,ioos:station:wmo:42047:1,2019-03-09T09:00:00Z,27.8966,-93.5973,11.0,1111122 
TABS,ioos:station:wmo:42047:1,2019-03-09T10:00:00Z,27.8966,-93.5973,11.1,1111122 
TABS,ioos:station:wmo:42047:1,2019-03-09T11:00:00Z,27.8966,-93.5973,10.7,1111122 
TABS,ioos:station:wmo:42047:1,2019-03-09T12:00:00Z,27.8966,-93.5973,11.2,1111122 
TABS,ioos:station:wmo:42047:1,2019-03-09T13:00:00Z,27.8966,-93.5973,11.2,1111122 
TABS,ioos:station:wmo:42047:1,2019-03-09T14:00:00Z,27.8966,-93.5973,11.4,1111122 
TABS,ioos:station:wmo:42047:1,2019-03-09T15:00:00Z,27.8966,-93.5973,11.9,1111122 
TABS,ioos:station:wmo:42047:1,2019-03-09T16:00:00Z,27.8966,-93.5973,12.3,1111122 
TABS,ioos:station:wmo:42047:1,2019-03-09T17:00:00Z,27.8966,-93.5973,12.8,1111122 
TABS,ioos:station:wmo:42047:1,2019-03-09T18:00:00Z,27.8966,-93.5973,13.0,1111122 
TABS,ioos:station:wmo:42047:1,2019-03-09T19:00:00Z,27.8966,-93.5973,13.0,1111122 
TABS,ioos:station:wmo:42047:1,2019-03-09T20:00:00Z,27.8966,-93.5973,13.1,1111122 
TABS,ioos:station:wmo:42047:1,2019-03-09T21:00:00Z,27.8966,-93.5973,13.0,1111122 
TABS,ioos:station:wmo:42047:1,2019-03-09T22:00:00Z,27.8966,-93.5973,12.8,1111122 
TABS,ioos:station:wmo:42047:1,2019-03-09T23:00:00Z,27.8966,-93.5973,12.6,1111122 
TABS,ioos:station:wmo:42047:1,2019-03-09T23:30:00Z,27.8966,-93.5973,12.2,1111122 
TABS,ioos:station:wmo:42047:1,2019-03-10T05:00:00Z,27.8966,-93.5973,11.7,1111122 
TABS,ioos:station:wmo:42047:1,2019-03-10T06:00:00Z,27.8966,-93.5973,11.6,1111122 
TABS,ioos:station:wmo:42047:1,2019-03-10T07:00:00Z,27.8966,-93.5973,11.7,1111122 
TABS,ioos:station:wmo:42047:1,2019-03-10T08:00:00Z,27.8966,-93.5973,11.8,1111122 
TABS,ioos:station:wmo:42047:1,2019-03-10T09:00:00Z,27.8966,-93.5973,11.7,1111122 
TABS,ioos:station:wmo:42047:1,2019-03-10T10:00:00Z,27.8966,-93.5973,11.5,1111122 
TABS,ioos:station:wmo:42047:1,2019-03-10T11:00:00Z,27.8966,-93.5973,11.4,1111122 
TABS,ioos:station:wmo:42047:1,2019-03-10T12:00:00Z,27.8966,-93.5973,11.4,1111122 
TABS,ioos:station:wmo:42047:1,2019-03-10T12:30:00Z,27.8966,-93.5973,11.5,1111122 
TABS,ioos:station:wmo:42047:1,2019-03-10T14:00:00Z,27.8966,-93.5973,11.9,1111122 
TABS,ioos:station:wmo:42047:1,2019-03-10T15:00:00Z,27.8966,-93.5973,12.9,1111122 
TABS,ioos:station:wmo:42047:1,2019-03-10T16:00:00Z,27.8966,-93.5973,13.3,1111122 
TABS,ioos:station:wmo:42047:1,2019-03-10T17:00:00Z,27.8966,-93.5973,13.2,1111122 
TABS,ioos:station:wmo:42047:1,2019-03-10T18:00:00Z,27.8966,-93.5973,13.1,1111122 
TABS,ioos:station:wmo:42047:1,2019-03-10T19:00:00Z,27.8966,-93.5973,13.6,1111122 
TABS,ioos:station:wmo:42047:1,2019-03-10T20:00:00Z,27.8966,-93.5973,13.6,1111122 
TABS,ioos:station:wmo:42047:1,2019-03-10T21:00:00Z,27.8966,-93.5973,12.8,1111122 
TABS,ioos:station:wmo:42047:1,2019-03-11T04:00:00Z,27.8966,-93.5973,12.4,1111122 
TABS,ioos:station:wmo:42047:1,2019-03-11T05:00:00Z,27.8966,-93.5973,12.3,1111122 
TABS,ioos:station:wmo:42047:1,2019-03-11T06:00:00Z,27.8966,-93.5973,12.2,1111122 
TABS,ioos:station:wmo:42047:1,2019-03-11T07:30:00Z,27.8966,-93.5973,12.1,1111122 
TABS,ioos:station:wmo:42047:1,2019-03-11T08:30:00Z,27.8966,-93.5973,12.1,1111122 
TABS,ioos:station:wmo:42047:1,2019-03-11T09:30:00Z,27.8966,-93.5973,12.0,1111122 
TABS,ioos:station:wmo:42047:1,2019-03-11T11:00:00Z,27.8966,-93.5973,12.0,1111122 
TABS,ioos:station:wmo:42047:1,2019-03-11T12:00:00Z,27.8966,-93.5973,11.9,1111122 
TABS,ioos:station:wmo:42047:1,2019-03-11T13:00:00Z,27.8966,-93.5973,12.1,1111122 
TABS,ioos:station:wmo:42047:1,2019-03-11T14:00:00Z,27.8966,-93.5973,13.3,1111122 
TABS,ioos:station:wmo:42047:1,2019-03-11T15:00:00Z,27.8966,-93.5973,12.5,1111122 
TABS,ioos:station:wmo:42047:1,2019-03-11T16:00:00Z,27.8966,-93.5973,12.8,1111122 
TABS,ioos:station:wmo:42047:1,2019-03-11T17:00:00Z,27.8966,-93.5973,13.6,1111122 
TABS,ioos:station:wmo:42047:1,2019-03-11T18:00:00Z,27.8966,-93.5973,13.7,1111122 
TABS,ioos:station:wmo:42047:1,2019-03-11T19:00:00Z,27.8966,-93.5973,13.8,1111122 
TABS,ioos:station:wmo:42047:1,2019-03-11T20:00:00Z,27.8966,-93.5973,13.9,1111122 
TABS,ioos:station:wmo:42047:1,2019-03-11T21:00:00Z,27.8966,-93.5973,13.8,1111122 
TABS,ioos:station:wmo:42047:1,2019-03-11T22:00:00Z,27.8966,-93.5973,13.8,1111122 
TABS,ioos:station:wmo:42047:1,2019-03-11T23:00:00Z,27.8966,-93.5973,12.8,1111122 
TABS,ioos:station:wmo:42047:1,2019-03-11T23:30:00Z,27.8966,-93.5973,12.5,1111122 
TABS,ioos:station:wmo:42047:1,2019-03-12T05:00:00Z,27.8966,-93.5973,12.2,1111122 
TABS,ioos:station:wmo:42047:1,2019-03-12T06:00:00Z,27.8966,-93.5973,12.2,1111122 
TABS,ioos:station:wmo:42047:1,2019-03-12T07:00:00Z,27.8966,-93.5973,12.4,1111122 
TABS,ioos:station:wmo:42047:1,2019-03-12T08:00:00Z,27.8966,-93.5973,12.1,1111122 
TABS,ioos:station:wmo:42047:1,2019-03-12T09:00:00Z,27.8966,-93.5973,12.1,1111122 
TABS,ioos:station:wmo:42047:1,2019-03-12T10:00:00Z,27.8966,-93.5973,12.2,1111122 
TABS,ioos:station:wmo:42047:1,2019-03-12T10:30:00Z,27.8966,-93.5973,11.8,1111122 
TABS,ioos:station:wmo:42047:1,2019-03-12T12:00:00Z,27.8966,-93.5973,12.4,1111122 
TABS,ioos:station:wmo:42047:1,2019-03-12T13:00:00Z,27.8966,-93.5973,12.4,1111122 
TABS,ioos:station:wmo:42047:1,2019-03-12T14:00:00Z,27.8966,-93.5973,13.2,1111122 
TABS,ioos:station:wmo:42047:1,2019-03-12T15:00:00Z,27.8966,-93.5973,13.5,1111122 
TABS,ioos:station:wmo:42047:1,2019-03-12T16:00:00Z,27.8966,-93.5973,13.4,1111122 
TABS,ioos:station:wmo:42047:1,2019-03-12T17:00:00Z,27.8966,-93.5973,13.4,1111122 
TABS,ioos:station:wmo:42047:1,2019-03-12T18:00:00Z,27.8966,-93.5973,13.6,1111122 
TABS,ioos:station:wmo:42047:1,2019-03-12T19:00:00Z,27.8966,-93.5973,13.5,1111122 
TABS,ioos:station:wmo:42047:1,2019-03-12T20:00:00Z,27.8966,-93.5973,13.4,1111122 
TABS,ioos:station:wmo:42047:1,2019-03-12T21:00:00Z,27.8966,-93.5973,13.4,1111122 
TABS,ioos:station:wmo:42047:1,2019-03-12T22:00:00Z,27.8966,-93.5973,13.6,1111122 
TABS,ioos:station:wmo:42047:1,2019-03-12T23:00:00Z,27.8966,-93.5973,12.8,1111122 
TABS,ioos:station:wmo:42047:1,2019-03-12T23:30:00Z,27.8966,-93.5973,12.8,1111122 
TABS,ioos:station:wmo:42047:1,2019-03-13T04:00:00Z,27.8966,-93.5973,12.0,1111122 
TABS,ioos:station:wmo:42047:1,2019-03-13T05:00:00Z,27.8966,-93.5973,12.1,1111122 
TABS,ioos:station:wmo:42047:1,2019-03-13T06:00:00Z,27.8966,-93.5973,12.1,1111122 
TABS,ioos:station:wmo:42047:1,2019-03-13T07:00:00Z,27.8966,-93.5973,12.2,1111122 
TABS,ioos:station:wmo:42047:1,2019-03-13T08:00:00Z,27.8966,-93.5973,12.1,1111122 
TABS,ioos:station:wmo:42047:1,2019-03-13T09:00:00Z,27.8966,-93.5973,12.1,1111122 
TABS,ioos:station:wmo:42047:1,2019-03-13T10:00:00Z,27.8966,-93.5973,11.8,1111122 
TABS,ioos:station:wmo:42047:1,2019-03-13T11:00:00Z,27.8966,-93.5973,11.8,1111122 
TABS,ioos:station:wmo:42047:1,2019-03-13T12:00:00Z,27.8966,-93.5973,11.7,1111122 
TABS,ioos:station:wmo:42047:1,2019-03-13T13:00:00Z,27.8966,-93.5973,11.8,1111122 
TABS,ioos:station:wmo:42047:1,2019-03-13T14:00:00Z,27.8966,-93.5973,12.5,1111122 
TABS,ioos:station:wmo:42047:1,2019-03-13T15:00:00Z,27.8966,-93.5973,13.2,1111122 
TABS,ioos:station:wmo:42047:1,2019-03-13T16:00:00Z,27.8966,-93.5973,13.5,1111122 
TABS,ioos:station:wmo:42047:1,2019-03-13T17:00:00Z,27.8966,-93.5973,13.6,1111122 
TABS,ioos:station:wmo:42047:1,2019-03-13T18:00:00Z,27.8966,-93.5973,13.4,1111122 
TABS,ioos:station:wmo:42047:1,2019-03-13T19:00:00Z,27.8966,-93.5973,13.7,1111122 
TABS,ioos:station:wmo:42047:1,2019-03-13T19:30:00Z,27.8966,-93.5973,13.7,1111122 
TABS,ioos:station:wmo:42047:1,2019-03-13T20:30:00Z,27.8966,-93.5973,13.4,1111122 
TABS,ioos:station:wmo:42047:1,2019-03-13T22:00:00Z,27.8966,-93.5973,13.2,1111122 
TABS,ioos:station:wmo:42047:1,2019-03-13T23:00:00Z,27.8966,-93.5973,10.1,1111122 
TABS,ioos:station:wmo:42047:1,2019-03-13T23:30:00Z,27.8966,-93.5973,13.0,1111122 
TABS,ioos:station:wmo:42047:1,2019-03-14T04:00:00Z,27.8966,-93.5973,12.1,1111122 
TABS,ioos:station:wmo:42047:1,2019-03-14T05:00:00Z,27.8966,-93.5973,12.1,1111122 
TABS,ioos:station:wmo:42047:1,2019-03-14T06:00:00Z,27.8966,-93.5973,11.9,1111122 
TABS,ioos:station:wmo:42047:1,2019-03-14T07:00:00Z,27.8966,-93.5973,11.9,1111122 
TABS,ioos:station:wmo:42047:1,2019-03-14T07:30:00Z,27.8966,-93.5973,11.9,1111122 
TABS,ioos:station:wmo:42047:1,2019-03-14T09:00:00Z,27.8966,-93.5973,11.8,1111122 
TABS,ioos:station:wmo:42047:1,2019-03-14T11:00:00Z,27.8966,-93.5973,11.7,1111122 
TABS,ioos:station:wmo:42047:1,2019-03-14T11:30:00Z,27.8966,-93.5973,10.3,1111122 
TABS,ioos:station:wmo:42047:1,2019-03-14T13:00:00Z,27.8966,-93.5973,12.1,1111122 
TABS,ioos:station:wmo:42047:1,2019-03-14T14:00:00Z,27.8966,-93.5973,13.2,1111122 
TABS,ioos:station:wmo:42047:1,2019-03-14T15:00:00Z,27.8966,-93.5973,13.2,1111122 
TABS,ioos:station:wmo:42047:1,2019-03-14T16:00:00Z,27.8966,-93.5973,12.9,1111122 
TABS,ioos:station:wmo:42047:1,2019-03-14T17:00:00Z,27.8966,-93.5973,12.9,1111122 
TABS,ioos:station:wmo:42047:1,2019-03-14T18:00:00Z,27.8966,-93.5973,12.5,1111122 
TABS,ioos:station:wmo:42047:1,2019-03-14T18:30:00Z,27.8966,-93.5973,12.5,1111122 
TABS,ioos:station:wmo:42047:1,2019-03-14T20:00:00Z,27.8966,-93.5973,14.2,1111122 
TABS,ioos:station:wmo:42047:1,2019-03-14T21:00:00Z,27.8966,-93.5973,13.9,1111122 
TABS,ioos:station:wmo:42047:1,2019-03-14T22:00:00Z,27.8966,-93.5973,13.2,1111122 
TABS,ioos:station:wmo:42047:1,2019-03-14T23:00:00Z,27.8966,-93.5973,10.4,1111122 
TABS,ioos:station:wmo:42047:1,2019-03-14T23:30:00Z,27.8966,-93.5973,10.6,1111122 
TABS,ioos:station:wmo:42047:1,2019-03-15T04:00:00Z,27.8966,-93.5973,11.2,1111122 
TABS,ioos:station:wmo:42047:1,2019-03-15T05:30:00Z,27.8966,-93.5973,11.0,1111122 
TABS,ioos:station:wmo:42047:1,2019-03-15T07:00:00Z,27.8966,-93.5973,10.2,1111122 
TABS,ioos:station:wmo:42047:1,2019-03-15T08:00:00Z,27.8966,-93.5973,9.3,1111122 
TABS,ioos:station:wmo:42047:1,2019-03-15T08:30:00Z,27.8966,-93.5973,8.1,1111122 
TABS,ioos:station:wmo:42047:1,2019-03-15T10:00:00Z,27.8966,-93.5973,7.1,1111122 
TABS,ioos:station:wmo:42047:1,2019-03-15T11:00:00Z,27.8966,-93.5973,6.3,1111122 
TABS,ioos:station:wmo:42047:1,2019-03-15T12:00:00Z,27.8966,-93.5973,5.2,1111122 
TABS,ioos:station:wmo:42047:1,2019-03-15T12:30:00Z,27.8966,-93.5973,5.4,1111122 
TABS,ioos:station:wmo:42047:1,2019-03-15T14:00:00Z,27.8966,-93.5973,6.5,1111122 
TABS,ioos:station:wmo:42047:1,2019-03-15T14:30:00Z,27.8966,-93.5973,5.5,1111122 
TABS,ioos:station:wmo:42047:1,2019-03-15T15:30:00Z,27.8966,-93.5973,4.8,1111122 
TABS,ioos:station:wmo:42047:1,2019-03-15T16:30:00Z,27.8966,-93.5973,4.6,1111122 
TABS,ioos:station:wmo:42047:1,2019-03-15T17:30:00Z,27.8966,-93.5973,4.9,1111122 
TABS,ioos:station:wmo:42047:1,2019-03-15T19:00:00Z,27.8966,-93.5973,4.9,1111122 
TABS,ioos:station:wmo:42047:1,2019-03-15T20:00:00Z,27.8966,-93.5973,4.6,1111122 
TABS,ioos:station:wmo:42047:1,2019-03-15T21:00:00Z,27.8966,-93.5973,4.6,1111122 
TABS,ioos:station:wmo:42047:1,2019-03-15T22:00:00Z,27.8966,-93.5973,4.8,1111122 
TABS,ioos:station:wmo:42047:1,2019-03-15T23:00:00Z,27.8966,-93.5973,4.1,1111122 
TABS,ioos:station:wmo:42047:1,2019-03-15T23:30:00Z,27.8966,-93.5973,1.8,1111122 
TABS,ioos:station:wmo:42047:1,2019-03-16T04:00:00Z,27.8966,-93.5973,4.6,1111122 
TABS,ioos:station:wmo:42047:1,2019-03-16T05:00:00Z,27.8966,-93.5973,4.5,1111122 
TABS,ioos:station:wmo:42047:1,2019-03-16T06:00:00Z,27.8966,-93.5973,4.2,1111122 